This demonstration page uses our WeatherBlox Daily Observations layout. Learn more.

Left ArrowRight Arrow

41.12389, -100.76542

Hourly Observations for September 5, 2020

Temp ( °F °C ) Dew Point ( °F °C ) Humidity (%) Winds ( mph kmh ) Pressure ( in mb ) Visibility ( mi km ) Precip ( " mm )
12:53 am 00:53 Clear 59 15 50 10 72 72 E 6 9 30.17 1022 10 16 0.00 0.00
1:53 am 01:53 Clear 57 13.9 50 10 78 78 E 7 11 30.16 1022 10 16 0.00 0.00
2:53 am 02:53 Clear 56 13.3 50 10 81 81 E 6 9 30.16 1022 10 16 0.00 0.00
3:53 am 03:53 Clear 55 12.8 50 10 83 83 ESE 6 9 30.16 1022 10 16 0.00 0.00
4:53 am 04:53 Clear 55 12.8 50 10 83 83 E 5 7 30.16 1022 10 16 0.00 0.00
5:53 am 05:53 Clear 53 11.7 49 9.4 86 86 Calm 30.16 1021 10 16 0.00 0.00
6:53 am 06:53 Clear 52 11.1 49 9.4 89 89 Calm 30.16 1022 10 16 0.00 0.00
7:53 am 07:53 Sunny 53 11.7 50 10 89 89 Calm 30.18 1022 10 16 0.00 0.00
8:53 am 08:53 Sunny 62 16.7 54 12.2 75 75 ESE 3 6 30.18 1022 10 16 0.00 0.00
9:53 am 09:53 Sunny 69 20.6 57 13.9 66 66 Calm 30.17 1022 10 16 0.00 0.00
10:53 am 10:53 Sunny 77 25 60 15.6 56 56 Calm 30.15 1021 10 16 0.00 0.00
11:53 am 11:53 Sunny 89 31.7 61 16.1 39 39 S 7 11 30.12 1020 10 16 0.00 0.00
12:53 pm 12:53 Sunny 94 34.4 61 16.1 33 33 S 12 19 30.09 1019 10 16 0.00 0.00
1:53 pm 13:53 Sunny 97 36.1 58 14.4 27 27 S 14 22 30.07 1018 10 16 0.00 0.00
2:53 pm 14:53 Sunny 100 37.8 50 10 18 18 SSE 16 26 30.04 1017 10 16 0.00 0.00
3:53 pm 15:53 Sunny 101 38.3 47 8.3 16 16 S 14 22 30.00 1016 10 16 0.00 0.00
4:53 pm 16:53 Sunny 100 37.8 48 8.9 17 17 S 14 22 29.97 1015 10 16 0.00 0.00
5:53 pm 17:53 Sunny 99 37.2 48 8.9 18 18 S 12 19 29.96 1014 10 16 0.00 0.00
6:53 pm 18:53 Sunny 95 35 51 10.6 23 23 S 9 15 29.95 1014 10 16 0.00 0.00
7:53 pm 19:53 Sunny 89 31.7 52 11.1 28 28 SSE 9 15 29.94 1014 10 16 0.00 0.00
8:53 pm 20:53 Clear 87 30.6 56 13.3 35 35 SSE 8 13 29.93 1014 10 16 0.00 0.00
9:53 pm 21:53 Clear 87 30.6 57 13.9 36 36 S 16 26 29.92 1013 10 16 0.00 0.00
10:53 pm 22:53 Clear 84 28.9 57 13.9 40 40 S 16 26 29.91 1013 10 16 0.00 0.00
11:53 pm 23:53 Clear 81 27.2 56 13.3 42 42 S 14 22 29.89 1012 10 16 0.00 0.00

Powered by AerisWeather